Dewpoint
41 41 41 41 42 42 42 43 42 42 42 42 42 40 38 39 38 35 34 34 31 27 25 28 30 27 27 20 19 21 10 12 22 19 18 18 18 18 19 15 15 13 13 16 17 21 20 15 13 16 13 14 11 10
41 41 41 41 41 42 42 42 42 42 42 42 42 40 37 39 39 35 33 32 33 30 27 29 30 35 28 22 21 18 13 8 22 21 20 21 18 19 17 15 12 13 10 10 13 14 13 13 8 15 8 7 7 7
41 41 41 41 41 41 41 42 42 42 42 41 42 41 37 39 37 33 33 31 28 27 26 25 29 23 13 10 21 19 15 20 23 25 24 23 17 19 16 14 10 7 6 9 7 11 6 5 14 8 5 5 6 7
41 41 41 41 41 41 41 41 42 42 42 42 41 41 36 38 36 33 32 32 28 24 22 22 24 26 10 7 9 21 16 23 25 26 24 23 20 17 15 9 7 5 4 3 6 8 7 16 14 7 6 5 6 6
42 42 41 41 42 42 41 41 42 42 42 42 41 41 36 36 35 34 34 32 31 27 20 20 22 23 6 6 11 17 18 20 25 24 23 19 17 14 8 6 6 5 5 3 4 3 5 5 7 7 7 7 6 6
42 42 42 42 42 42 42 41 42 42 41 41 41 41 34 37 37 33 28 34 30 30 24 18 20 11 7 6 9 13 22 26 27 24 18 16 10 14 12 10 6 6 7 7 5 5 6 6 7 7 7 6 7 9
43 42 42 42 42 42 42 42 42 42 42 41 41 39 33 36 30 24 24 27 29 30 22 13 10 7 10 8 9 12 17 24 25 20 16 12 9 10 9 10 8 6 7 6 7 4 4 5 5 7 6 7 10 9
43 43 42 42 42 42 42 42 42 42 42 41 41 34 35 34 33 27 29 24 20 17 16 9 9 2 8 7 7 12 15 20 20 17 12 6 4 5 6 8 4 5 4 4 4 5 6 6 4 4 5 6 6 6
44 43 43 42 42 42 42 42 42 42 42 41 31 32 28 23 23 26 26 20 17 19 14 10 8 10 4 5 9 13 14 17 17 14 8 5 4 4 6 6 4 5 5 5 4 4 2 1 2 4 5 4 5 6
44 43 43 42 43 43 42 42 42 42 41 29 22 24 22 24 26 18 14 17 17 15 15 9 7 7 2 2 6 9 11 12 12 11 7 6 4 5 5 7 7 6 4 2 -0 2 2 3 3 3 4 5 6 7
44 44 43 42 44 44 43 43 42 41 35 32 32 28 26 21 17 17 14 13 11 7 9 8 5 2 6 4 4 9 8 9 8 8 6 6 4 8 6 4 3 2 2 1 1 2 2 3 2 3 4 6 8 9
44 44 43 42 44 44 43 43 43 38 35 34 32 26 18 15 16 9 11 6 3 6 6 7 7 5 6 9 8 8 6 7 4 5 5 4 10 5 3 1 2 0 -2 -0 -0 0 1 3 3 5 5 6 7 9
44 44 43 43 44 43 43 43 43 40 34 29 22 13 15 13 5 3 6 11 9 9 7 6 6 7 6 7 5 5 4 4 3 3 4 8 6 3 2 -1 0 -1 -3 -3 -1 0 1 1 3 3 5 7 8 10
43 44 44 43 43 43 43 44 44 37 33 29 24 21 12 12 8 13 15 20 13 11 7 7 4 6 4 5 2 3 3 1 0 -2 2 8 6 4 1 -2 -1 1 -1 -2 0 2 0 0 2 4 7 9 9 10
44 44 44 44 44 44 44 45 43 34 29 26 19 19 13 16 16 16 15 11 10 9 8 7 5 5 3 2 0 1 -1 -1 1 3 8 8 6 3 1 -1 -1 -0 -3 -2 -0 1 0 1 2 4 8 9 11 11
44 44 43 44 44 45 45 44 35 30 28 25 21 19 15 11 15 11 12 13 11 11 13 13 5 4 2 2 -2 -1 -1 -2 5 7 7 3 2 2 2 2 2 1 -0 0 -0 1 3 1 4 7 8 9 10 11
44 39 43 44 45 45 45 34 31 29 27 23 19 20 20 17 19 17 14 13 14 16 14 10 7 7 -1 -2 -3 1 1 8 11 7 4 5 5 4 2 2 3 2 1 1 -1 1 3 4 2 5 7 9 11 11
42 42 43 43 44 39 33 32 30 28 24 24 20 20 13 15 15 14 12 13 14 16 13 12 6 3 2 -2 1 6 8 10 4 6 5 5 4 3 2 3 4 4 4 1 -1 -0 -0 -1 5 8 9 10 11 10
42 42 44 44 42 33 28 27 28 23 23 18 14 13 12 12 11 13 12 14 14 16 10 9 9 6 4 6 10 13 11 9 7 4 3 5 5 3 4 4 4 3 3 3 3 5 6 4 7 8 9 10 9 10
44 44 43 42 39 31 27 22 19 21 19 16 11 11 11 9 8 10 11 10 12 13 9 6 8 11 11 14 13 13 9 7 5 2 1 1 0 1 2 3 3 4 4 3 3 8 5 6 8 9 10 10 9 9
39 36 38 36 31 30 26 19 17 18 14 12 8 8 5 5 5 6 6 11 10 10 8 11 11 13 13 10 8 8 6 9 9 9 7 4 1 0 1 1 3 3 4 4 4 5 9 6 7 8 9 9 9 10
33 35 31 31 25 21 16 13 15 14 12 8 8 7 4 2 1 4 7 6 7 8 10 11 13 12 12 8 9 9 9 8 6 7 9 7 -1 0 2 3 2 3 3 4 4 5 6 7 8 8 8 8 10 10
33 32 28 26 22 20 9 11 12 8 9 6 4 4 4 3 2 5 2 5 6 8 7 5 4 4 5 4 4 3 5 6 6 7 9 4 3 4 4 3 3 2 2 3 4 6 6 9 9 7 7 8 8 8
30 22 18 15 14 4 4 -0 5 4 4 4 4 5 5 -1 -1 -3 -4 2 6 6 3 2 0 0 0 1 2 2 2 5 4 3 3 2 2 0 2 1 -0 -1 1 1 3 5 6 7 8 6 5 5 6 6
18 13 16 5 5 5 1 -5 -9 -3 -4 2 2 3 0 -2 -6 -8 -6 -1 1 -0 -1 -1 -1 -0 -1 0 1 1 1 4 2 0 -1 0 -1 -2 -2 -3 -4 -3 -2 1 2 3 3 4 4 3 3 4 4 4
11 3 7 5 1 4 2 -2 -4 -2 1 0 1 -3 -4 -4 -5 -4 0 -1 -1 -1 -2 -2 -2 -1 -0 1 1 -1 -1 -1 1 0 -2 -2 -2 -1 -2 -3 -3 -1 -2 0 2 2 2 2 2 1 2 2 8 4
4 1 5 10 9 7 7 6 6 4 -1 -3 -1 -3 -3 -4 -1 1 2 -0 -1 -0 -2 -2 -1 0 -0 -1 -2 -2 -2 -3 -4 -3 -4 -2 -3 -6 -5 -5 -6 -1 -2 -1 2 3 2 1 1 2 2 2 2 3
-1 1 -3 2 4 6 2 -0 -1 -3 -1 1 2 -5 -2 -0 0 0 1 1 -1 -2 -3 -4 -4 -3 -2 -3 -4 -4 -6 -8 -8 -7 -6 -7 -11 -11 -13 -9 -8 5 -4 -1 3 3 3 3 2 2 2 2 2 3
-0 3 4 -1 -0 -2 -7 -6 -4 -2 -1 -1 -1 2 1 1 1 -0 1 2 2 1 0 0 -2 -3 -5 -6 -6 -7 -6 -4 -4 -8 -10 -8 -8 -6 -12 -11 -8 -4 1 4 9 6 3 3 2 2 2 3 2 -2
-3 2 -4 -7 -6 -7 -5 -4 -4 -1 1 2 2 2 4 2 1 3 2 0 -1 -1 -2 -1 -2 -2 -2 -2 -4 -6 -8 -11 -14 -11 -12 -11 -10 -13 -17 -14 -10 -5 -1 1 2 3 8 4 6 2 -0 -1 -1 -2
0 -4 -9 -9 -8 -6 -4 -3 -3 -1 1 0 2 -1 -0 1 2 1 -1 -1 -0 0 0 -1 -1 -4 -4 -7 -14 -14 -10 -12 -19 -19 -18 -16 -16 -15 -15 -15 -12 -9 -5 -3 -2 -1 -1 -1 -2 -4 -4 -4 -4 0
-8 -16 -16 -17 -15 -13 -10 -9 -6 -5 -4 -5 -5 -4 -3 -1 -2 -3 -7 -9 -8 -9 -2 -7 -7 -7 -14 -17 -21 -20 -2 -17 -17 -18 -17 -14 -12 -13 -14 -15 -17 -12 -9 -8 -9 -9 -9 -9 -8 -8 -8 -10 -11 -12
-21 -22 -24 -22 -19 -19 -16 -16 -16 -20 -16 -20 -19 -20 -19 -16 -16 -11 -14 -19 -17 -17 -17 -15 -14 -16 -17 -20 -20 -17 -6 -16 -13 4 3 4 4 -0 -13 -15 -15 -13 -12 -10 -11 -12 -14 -15 -13 -14 -14 -13 -12 -13
Lifted_Index
20 20 19 19 19 18 18 17 17 17 17 16 16 17 17 17 17 17 17 17 16 13 12 13 13 13 12 11 10 10 10 10 9 8 7 6 5 5 4 4 4 4 3 3 3 3 4 6 7 6 7 9 10 10
20 20 19 19 19 18 18 17 17 17 17 16 16 16 16 17 17 17 17 17 16 14 13 13 13 13 13 13 12 12 11 11 11 9 9 8 7 6 5 4 5 5 4 4 4 5 7 8 9 10 10 11 11 11
20 20 20 19 19 18 18 18 17 17 17 16 16 16 16 16 17 17 17 17 16 14 12 12 13 14 14 14 14 13 13 13 12 11 10 9 8 8 7 6 6 7 7 6 6 7 9 10 12 13 13 13 12 12
19 20 19 19 19 18 18 18 17 17 17 16 16 16 16 16 17 18 17 17 16 14 11 11 13 14 14 15 15 15 14 14 13 12 11 10 9 9 9 9 9 9 9 8 8 9 10 11 13 14 14 14 13 13
19 19 19 19 18 18 18 17 17 17 17 16 16 15 15 16 17 17 17 16 16 14 11 10 13 14 15 16 16 15 14 14 13 12 11 10 10 10 10 9 10 10 10 10 9 10 11 12 13 14 14 13 14 14
19 19 19 18 18 17 17 17 17 17 17 16 16 15 15 16 17 16 15 16 17 16 12 10 11 14 15 16 16 15 14 13 12 12 11 11 11 10 9 8 10 12 12 12 12 12 13 13 14 15 14 14 14 14
18 18 18 18 18 17 16 16 16 16 16 16 15 15 15 16 16 14 14 16 18 17 13 9 9 12 14 14 14 14 14 13 12 12 11 11 11 11 9 9 11 12 13 14 14 15 14 14 15 15 15 15 15 15
18 18 18 17 17 16 16 16 16 16 16 15 15 14 14 15 15 14 16 18 18 16 12 8 7 9 11 11 11 12 12 12 12 11 11 11 11 10 9 10 12 13 14 14 15 16 16 16 16 16 16 16 15 14
17 17 17 17 16 15 15 15 15 15 15 15 14 13 13 13 14 15 16 17 17 15 10 7 6 7 9 9 9 10 11 10 10 10 10 10 9 9 10 12 13 14 14 15 15 16 16 16 16 16 16 16 15 15
17 17 16 16 15 15 15 14 14 14 14 14 13 12 12 13 14 14 13 12 12 11 9 7 6 7 8 8 7 8 9 8 8 9 9 8 8 9 11 13 14 14 15 15 15 16 16 16 16 15 16 16 16 16
16 16 15 15 14 14 14 14 13 13 14 13 13 12 12 12 12 10 8 8 7 7 6 6 6 7 8 7 7 8 8 7 7 8 8 7 7 10 12 13 14 15 16 16 17 17 17 17 16 16 16 16 17 17
15 15 15 14 14 13 13 13 12 13 13 13 13 12 12 11 9 7 6 5 4 4 4 5 5 7 8 8 8 7 7 6 7 7 7 6 8 10 12 13 14 16 16 17 17 18 18 18 17 17 17 17 17 17
15 15 14 14 13 12 12 11 11 12 12 12 12 11 10 9 7 5 4 4 3 3 4 4 4 6 7 8 7 7 6 6 7 6 5 6 9 11 12 13 14 15 16 17 17 18 18 18 18 18 17 17 17 17
15 14 14 13 12 11 11 10 10 11 11 11 11 10 9 7 6 4 3 3 3 4 4 3 4 5 6 6 6 6 6 6 5 4 5 7 9 11 12 13 14 14 15 16 17 17 17 17 18 18 17 17 17 17
14 14 13 12 11 10 9 9 10 10 10 10 10 9 8 6 5 4 3 3 4 4 4 4 4 4 5 5 6 5 5 4 4 5 6 8 10 11 12 12 13 14 15 16 16 17 17 17 17 17 17 17 17 17
13 13 12 11 10 9 9 9 9 9 9 9 9 8 7 6 5 4 4 4 4 5 4 4 4 4 4 5 5 4 4 4 4 6 7 9 10 11 12 12 13 14 15 16 16 16 16 17 17 17 17 17 17 17
12 12 11 10 9 9 8 8 8 7 8 8 7 6 6 5 5 4 4 4 5 5 4 4 4 4 4 4 3 3 4 5 6 7 8 9 11 12 12 13 14 15 16 16 16 16 16 16 17 16 16 16 16 16
11 11 10 10 9 9 8 8 7 7 7 7 6 5 5 5 4 4 4 5 5 5 5 5 5 4 3 3 3 3 5 6 7 8 9 10 11 12 13 13 14 15 15 16 16 16 16 16 16 16 16 16 16 16
10 10 10 9 9 8 8 7 7 6 6 6 6 5 5 5 4 4 5 5 6 6 6 5 4 3 3 3 3 4 6 7 8 8 9 11 12 12 13 14 14 15 15 16 16 16 16 16 16 16 16 16 15 15
10 9 9 9 8 8 7 7 7 6 6 6 5 5 4 4 4 4 4 5 6 6 5 4 4 4 4 5 5 6 7 8 9 9 10 11 12 12 13 14 14 15 15 15 16 16 16 16 16 16 15 15 14 14
9 9 9 8 8 7 7 7 7 6 6 5 5 4 4 3 3 3 4 4 4 4 4 4 4 5 6 7 8 9 9 10 10 10 10 11 12 13 13 14 14 15 15 15 15 15 15 15 15 15 15 14 14 13
9 9 9 9 8 8 8 8 7 7 6 6 5 4 4 3 3 3 4 4 4 4 4 5 6 7 8 9 9 10 11 11 11 11 11 12 12 13 14 14 14 15 15 15 15 15 15 15 15 14 14 13 13 13
10 10 10 9 9 9 9 9 8 7 7 6 6 5 4 4 4 5 4 4 4 5 6 7 7 8 8 9 10 11 11 12 12 12 12 13 13 13 14 14 15 15 15 15 15 15 14 14 14 14 13 12 12 12
11 11 10 10 9 9 9 9 8 7 7 6 6 6 5 5 6 6 5 5 5 7 7 8 8 8 8 9 10 11 12 12 12 13 13 13 14 14 14 15 15 15 15 15 15 14 14 14 14 13 12 12 11 11
11 11 10 10 9 9 8 8 7 7 7 7 6 6 6 6 6 5 5 5 6 7 8 8 8 8 8 9 10 11 13 13 13 13 14 15 15 15 15 15 15 15 15 15 14 14 13 13 13 12 12 11 11 11
10 10 10 9 8 8 8 7 7 7 7 7 7 7 6 6 5 5 6 7 8 9 9 9 9 9 10 10 11 12 14 14 14 14 15 15 15 15 15 14 14 14 15 14 14 13 13 12 12 11 11 11 11 11
8 8 8 8 8 8 7 7 7 7 7 7 7 7 6 5 5 6 8 10 10 11 12 12 12 12 12 13 13 14 15 16 16 15 16 16 16 16 15 14 14 14 14 14 14 13 13 12 12 11 11 11 11 11
7 7 7 7 7 7 7 7 7 8 8 8 8 8 7 7 8 9 11 12 13 13 14 14 14 14 14 14 15 15 16 16 15 15 15 15 15 15 15 15 15 15 15 14 14 14 13 12 12 12 11 12 12 12
7 7 7 7 7 7 8 8 9 9 10 10 10 10 10 11 12 13 14 14 15 14 14 14 15 15 15 15 15 15 15 15 15 14 14 14 14 14 15 15 15 15 15 15 15 14 13 13 12 12 12 12 12 12
8 8 8 8 8 8 10 11 11 12 13 13 12 12 12 13 15 16 16 16 15 15 15 15 15 15 14 14 14 14 15 15 14 14 13 13 13 14 14 14 14 14 14 14 14 14 14 13 12 12 12 12 12 12
9 9 9 8 9 10 12 13 13 13 13 13 13 13 13 14 15 16 16 16 15 15 14 14 14 14 14 14 14 14 14 14 14 14 14 14 14 14 14 14 14 14 14 14 14 14 13 13 12 12 12 12 12 12
10 10 10 9 10 11 12 12 12 12 12 12 12 12 12 12 13 15 16 16 15 14 14 14 14 14 14 14 14 14 14 14 14 14 14 14 14 14 14 14 14 14 14 14 14 13 13 13 12 12 12 12 12 12
11 11 11 11 11 11 12 12 11 11 11 12 12 12 12 12 12 14 16 16 15 14 14 14 14 14 15 15 15 15 15 15 14 14 14 14 14 14 14 14 14 14 14 14 14 13 13 13 12 12 12 12 12 12